Weather in Letojanni

Italy     37°52′59″N   15°18′31″E
temp.,
°C
wind,
m/s
gust,
m/s
humid.,
%
clouds,
%
prec.,
mm/h
press.,
hPa
HPBL,
m
24 october, sun
sun2423:00+17sse3598100 0.3 1020256
02:00+17sse479891 0.3 1019361
05:00+16sse4895100 0.3 1017357
08:00+16sse5108899 0.4 1018618
11:00+19se61368100 0.2 10171222
14:00+19se81567100 0.6 10161367
17:00+17se6158199 1.9 10151128
20:00+17ese51388100 5.3 10151076
25 october, mon
mon2523:00+16se51095100 5.3 1015735
02:00+16ese3593100 11.1 1015408
05:00+16se3492100 3.9 1014294
08:00+16ese2391100 5.0 1014175
11:00+19se347510 0.4 1015810
14:00+19se347223 1.3 1014915
17:00+17sse358129 0.6 1014621
20:00+14sse239616 0.8 1016101
26 october, tue
tue2623:00+14sse23935 0.2 101771
02:00+14sse228872 0.2 101780
05:00+13sse129217 0.1 101755
08:00+14sse2398100 2.1 1017141
11:00+14ssw1395100 12.3 1017179
14:00+15ese1296100 20.4 1016166
17:00+15se1295100 4.5 1016102
20:00+14sse1298100 8.6 101795
27 october, wed
wed2723:00+14sse2399100 7.1 1018116
02:00+14s2397100 12.3 1018115
05:00+14s2397100 4.0 1017134
08:00+14sse2398100 10.2 1018191
11:00+15s2394100 3.2 1019258
14:00+15s2494100 6.6 1018308
17:00+14s2398100 3.3 1018237
20:00+13s3597100 10.9 1019318
28 october, thu
thu2823:00+13ssw2496100 0.7 1019185
02:00+13ssw1295100 0.8 101985
05:00+12wsw119272 0.0 101834
08:00+12wsw119293 0.0 101940
11:00+16e017693 0.1 1018831
14:00+16nnw127285 0.4 1017790
17:00+15nnw127780 0.3 1017550
20:00+13wnw11886 0.6 101835